MGE10 PKMJ-PTSA

Flight info

Callsign MGE10
Flight time 1h 30m
Altitude 34000
Route MAJ 07N170E LENIA UKS
Aircraft B752/M-SDE3FGHIM3RWXY/LB1

Departure

Time 2026-05-07 22:43
Airport Marshall Islands International Airport (PKMJ)

Arrival

Time 2026-05-08 00:13
Airport Kosrae International Airport (PTSA)
Time Latitude Longitude Altitude Speed Heading
2026-05-07 22:27 7.06821 171.28095 19 ft 0 kts 31°
2026-05-07 22:37 7.06826 171.28098 18 ft 1 kts 36°
2026-05-07 22:37 7.06834 171.28111 18 ft 3 kts 77°
2026-05-07 22:38 7.06823 171.28137 19 ft 4 kts 146°
2026-05-07 22:38 7.06786 171.28133 19 ft 7 kts 203°
2026-05-07 22:38 7.06735 171.28104 18 ft 9 kts 228°
2026-05-07 22:38 7.06706 171.28027 19 ft 15 kts 256°
2026-05-07 22:39 7.06671 171.27889 23 ft 25 kts 256°
2026-05-07 22:39 7.06621 171.27679 26 ft 35 kts 256°
2026-05-07 22:39 7.06554 171.27403 23 ft 46 kts 256°
2026-05-07 22:39 7.06470 171.27065 17 ft 50 kts 256°
2026-05-07 22:40 7.06388 171.26732 20 ft 46 kts 256°
2026-05-07 22:40 7.06313 171.26427 25 ft 43 kts 258°
2026-05-07 22:40 7.06283 171.26239 24 ft 11 kts 303°
2026-05-07 22:40 7.06307 171.26187 24 ft 5 kts 256°
2026-05-07 22:41 7.06289 171.26150 22 ft 6 kts 224°
2026-05-07 22:41 7.06253 171.26147 22 ft 3 kts 155°
2026-05-07 22:41 7.06247 171.26157 22 ft 0 kts 94°
2026-05-07 22:41 7.06248 171.26160 22 ft 3 kts 79°
2026-05-07 22:42 7.06280 171.26292 24 ft 43 kts 76°
2026-05-07 22:42 7.06407 171.26813 19 ft 108 kts 76°
2026-05-07 22:42 7.06637 171.27748 42 ft 164 kts 76°
2026-05-07 22:42 7.06930 171.28937 552 ft 184 kts 77°
2026-05-07 22:43 7.07326 171.30133 1424 ft 182 kts 58°
2026-05-07 22:43 7.08355 171.30968 1686 ft 204 kts 21°
2026-05-07 22:43 7.09842 171.30995 1919 ft 231 kts 346°
2026-05-07 22:43 7.11297 171.30080 2144 ft 260 kts 313°
2026-05-07 22:44 7.12163 171.28403 2499 ft 280 kts 282°
2026-05-07 22:44 7.12143 171.26401 2886 ft 292 kts 253°
2026-05-07 22:44 7.11718 171.24423 3599 ft 298 kts 267°
2026-05-07 22:44 7.11662 171.22347 4885 ft 298 kts 266°
2026-05-07 22:45 7.11532 171.20270 6000 ft 301 kts 264°
2026-05-07 22:45 7.11364 171.18149 6918 ft 305 kts 264°
2026-05-07 22:45 7.11181 171.16029 7899 ft 308 kts 264°
2026-05-07 22:45 7.10986 171.13882 8851 ft 310 kts 264°
2026-05-07 22:46 7.10786 171.11729 9878 ft 313 kts 264°
2026-05-07 22:46 7.10582 171.09560 10743 ft 315 kts 264°
2026-05-07 22:46 7.10360 171.07216 10979 ft 346 kts 264°
2026-05-07 22:46 7.10119 171.04683 11279 ft 375 kts 264°
2026-05-07 22:47 7.09868 171.02057 12236 ft 382 kts 264°
2026-05-07 22:47 7.09614 170.99408 13565 ft 381 kts 265°
2026-05-07 22:47 7.09361 170.96761 14627 ft 384 kts 265°
2026-05-07 22:47 7.09105 170.94084 15658 ft 387 kts 265°
2026-05-07 22:48 7.08847 170.91385 16624 ft 390 kts 265°
2026-05-07 22:48 7.08587 170.88670 17435 ft 396 kts 265°
2026-05-07 22:48 7.08320 170.85893 18180 ft 404 kts 265°
2026-05-07 22:48 7.08046 170.83044 18988 ft 408 kts 265°
2026-05-07 22:49 7.07773 170.80209 19670 ft 414 kts 265°
2026-05-07 22:49 7.07493 170.77286 20329 ft 421 kts 265°
2026-05-07 22:49 7.07207 170.74326 20985 ft 425 kts 265°
2026-05-07 22:49 7.06923 170.71359 21520 ft 433 kts 265°
2026-05-07 22:50 7.06628 170.68300 22201 ft 436 kts 265°
2026-05-07 22:50 7.06336 170.65269 22818 ft 441 kts 265°
2026-05-07 22:50 7.06037 170.62178 23429 ft 446 kts 265°
2026-05-07 22:50 7.05738 170.59074 24091 ft 449 kts 265°
2026-05-07 22:51 7.05435 170.55946 24674 ft 453 kts 265°
2026-05-07 22:51 7.05127 170.52751 25351 ft 455 kts 265°
2026-05-07 22:51 7.04821 170.49591 25924 ft 458 kts 265°
2026-05-07 22:51 7.04509 170.46367 26524 ft 461 kts 265°
2026-05-07 22:52 7.04202 170.43187 27175 ft 462 kts 264°
2026-05-07 22:52 7.03884 170.39912 27567 ft 469 kts 264°
2026-05-07 22:52 7.03567 170.36650 28145 ft 470 kts 264°
2026-05-07 22:52 7.03251 170.33395 28641 ft 473 kts 264°
2026-05-07 22:53 7.02928 170.30080 29068 ft 477 kts 264°
2026-05-07 22:53 7.02600 170.26708 29410 ft 481 kts 264°
2026-05-07 22:53 7.02276 170.23369 29768 ft 485 kts 264°
2026-05-07 22:53 7.01940 170.19926 30116 ft 488 kts 264°
2026-05-07 22:54 7.01610 170.16544 30523 ft 489 kts 264°
2026-05-07 22:54 7.01277 170.13126 30937 ft 489 kts 264°
2026-05-07 22:54 7.00947 170.09740 31392 ft 487 kts 264°
2026-05-07 22:54 7.00614 170.06332 31712 ft 487 kts 264°
2026-05-07 22:55 7.00285 170.02965 31996 ft 487 kts 264°
2026-05-07 22:55 6.99831 169.99538 32262 ft 487 kts 258°
2026-05-07 22:55 6.99088 169.96242 32548 ft 487 kts 256°
2026-05-07 22:55 6.98331 169.92917 32809 ft 487 kts 257°
2026-05-07 22:56 6.97570 169.89586 33033 ft 488 kts 256°
2026-05-07 22:56 6.96806 169.86261 33320 ft 486 kts 256°
2026-05-07 22:56 6.96037 169.82922 33494 ft 488 kts 256°
2026-05-07 22:56 6.95275 169.79617 33735 ft 486 kts 256°
2026-05-07 22:57 6.94517 169.76340 33906 ft 478 kts 256°
2026-05-07 22:57 6.93773 169.73117 33891 ft 467 kts 256°
2026-05-07 22:57 6.93041 169.69954 33892 ft 457 kts 256°
2026-05-07 22:58 6.91599 169.63730 33899 ft 456 kts 256°
2026-05-07 22:58 6.90156 169.57504 33898 ft 458 kts 256°
2026-05-07 22:59 6.88702 169.51236 33900 ft 460 kts 256°
2026-05-07 22:59 6.87245 169.44963 33904 ft 460 kts 256°
2026-05-07 23:00 6.85785 169.38675 33904 ft 460 kts 256°
2026-05-07 23:00 6.84335 169.32434 33902 ft 459 kts 256°
2026-05-07 23:01 6.82873 169.26147 33904 ft 459 kts 256°
2026-05-07 23:01 6.81424 169.19922 33905 ft 459 kts 256°
2026-05-07 23:02 6.79967 169.13663 33904 ft 458 kts 256°
2026-05-07 23:02 6.78512 169.07419 33904 ft 460 kts 256°
2026-05-07 23:03 6.77045 169.01131 33904 ft 460 kts 256°
2026-05-07 23:03 6.75584 168.94869 33906 ft 459 kts 256°
2026-05-07 23:04 6.74124 168.88611 33905 ft 458 kts 256°
2026-05-07 23:04 6.72668 168.82378 33904 ft 458 kts 256°
2026-05-07 23:05 6.71208 168.76131 33905 ft 458 kts 256°
2026-05-07 23:05 6.69749 168.69890 33905 ft 457 kts 256°
2026-05-07 23:06 6.68294 168.63673 33905 ft 458 kts 256°
2026-05-07 23:06 6.66833 168.57433 33902 ft 457 kts 256°
2026-05-07 23:07 6.65376 168.51210 33902 ft 457 kts 256°
2026-05-07 23:07 6.63918 168.44992 33899 ft 457 kts 257°
2026-05-07 23:08 6.62460 168.38777 33897 ft 457 kts 257°
2026-05-07 23:08 6.60992 168.32523 33890 ft 457 kts 256°
2026-05-07 23:09 6.59539 168.26334 33888 ft 457 kts 256°
2026-05-07 23:09 6.58076 168.20103 33884 ft 456 kts 256°
2026-05-07 23:10 6.56622 168.13922 33885 ft 456 kts 256°
2026-05-07 23:10 6.55158 168.07698 33883 ft 456 kts 256°
2026-05-07 23:11 6.53703 168.01517 33885 ft 456 kts 256°
2026-05-07 23:11 6.52235 167.95285 33886 ft 457 kts 257°
2026-05-07 23:12 6.50769 167.89061 33884 ft 456 kts 257°
2026-05-07 23:12 6.49305 167.82849 33884 ft 455 kts 256°
2026-05-07 23:13 6.47851 167.76688 33886 ft 455 kts 257°
2026-05-07 23:13 6.46392 167.70509 33886 ft 455 kts 257°
2026-05-07 23:14 6.44929 167.64313 33884 ft 455 kts 257°
2026-05-07 23:14 6.43467 167.58127 33883 ft 455 kts 257°
2026-05-07 23:15 6.42007 167.51950 33883 ft 454 kts 257°
2026-05-07 23:15 6.40540 167.45747 33882 ft 454 kts 257°
2026-05-07 23:16 6.39083 167.39598 33877 ft 454 kts 257°
2026-05-07 23:16 6.37620 167.33420 33877 ft 454 kts 257°
2026-05-07 23:17 6.36156 167.27243 33873 ft 453 kts 257°
2026-05-07 23:17 6.34699 167.21094 33875 ft 452 kts 257°
2026-05-07 23:18 6.33236 167.14929 33874 ft 452 kts 257°
2026-05-07 23:18 6.31780 167.08795 33878 ft 453 kts 257°
2026-05-07 23:19 6.30315 167.02626 33882 ft 452 kts 257°
2026-05-07 23:19 6.28856 166.96487 33878 ft 449 kts 257°
2026-05-07 23:20 6.27414 166.90424 33879 ft 449 kts 257°
2026-05-07 23:20 6.25949 166.84262 33883 ft 451 kts 257°
2026-05-07 23:21 6.24493 166.78145 33888 ft 452 kts 257°
2026-05-07 23:21 6.23020 166.71962 33888 ft 453 kts 257°
2026-05-07 23:22 6.21547 166.65778 33890 ft 455 kts 257°
2026-05-07 23:22 6.20082 166.59633 33885 ft 451 kts 257°
2026-05-07 23:23 6.18617 166.53491 33887 ft 451 kts 257°
2026-05-07 23:23 6.17149 166.47340 33885 ft 452 kts 257°
2026-05-07 23:24 6.15682 166.41199 33885 ft 452 kts 257°
2026-05-07 23:24 6.14219 166.35075 33885 ft 453 kts 257°
2026-05-07 23:25 6.12746 166.28914 33885 ft 453 kts 257°
2026-05-07 23:25 6.11276 166.22766 33885 ft 453 kts 257°
2026-05-07 23:26 6.09803 166.16611 33884 ft 452 kts 257°
2026-05-07 23:26 6.08337 166.10486 33885 ft 453 kts 257°
2026-05-07 23:27 6.06118 166.01227 33884 ft 454 kts 257°
2026-05-07 23:27 6.04634 165.95038 33883 ft 454 kts 257°
2026-05-07 23:28 6.03154 165.88866 33874 ft 453 kts 257°
2026-05-07 23:28 6.01680 165.82726 33866 ft 453 kts 257°
2026-05-07 23:29 6.00202 165.76570 33866 ft 453 kts 257°
2026-05-07 23:29 5.98726 165.70427 33866 ft 453 kts 257°
2026-05-07 23:30 5.97239 165.64243 33865 ft 453 kts 257°
2026-05-07 23:30 5.95765 165.58113 33865 ft 452 kts 257°
2026-05-07 23:31 5.94290 165.51984 33865 ft 452 kts 257°
2026-05-07 23:31 5.92809 165.45830 33866 ft 452 kts 257°
2026-05-07 23:32 5.91330 165.39687 33865 ft 452 kts 257°
2026-05-07 23:32 5.89841 165.33511 33864 ft 452 kts 257°
2026-05-07 23:33 5.88368 165.27402 33861 ft 451 kts 258°
2026-05-07 23:33 5.86890 165.21274 33862 ft 451 kts 257°
2026-05-07 23:34 5.85420 165.15183 33862 ft 450 kts 257°
2026-05-07 23:34 5.83942 165.09062 33862 ft 450 kts 258°
2026-05-07 23:35 5.82462 165.02934 33861 ft 450 kts 257°
2026-05-07 23:35 5.80987 164.96837 33858 ft 451 kts 258°
2026-05-07 23:36 5.79504 164.90700 33859 ft 452 kts 258°
2026-05-07 23:36 5.78020 164.84569 33861 ft 451 kts 258°
2026-05-07 23:37 5.76537 164.78444 33865 ft 451 kts 258°
2026-05-07 23:37 5.75057 164.72328 33868 ft 451 kts 258°
2026-05-07 23:38 5.74309 164.69240 33404 ft 461 kts 258°
2026-05-07 23:38 5.73545 164.66089 32827 ft 465 kts 258°
2026-05-07 23:38 5.72781 164.62936 32264 ft 464 kts 257°
2026-05-07 23:38 5.72014 164.59773 31748 ft 461 kts 257°
2026-05-07 23:39 5.71261 164.56668 31243 ft 459 kts 257°
2026-05-07 23:39 5.70506 164.53555 30739 ft 459 kts 257°
2026-05-07 23:39 5.69753 164.50453 30239 ft 460 kts 257°
2026-05-07 23:39 5.68991 164.47311 29734 ft 462 kts 257°
2026-05-07 23:40 5.68228 164.44168 29225 ft 461 kts 256°
2026-05-07 23:40 5.67472 164.41057 28722 ft 458 kts 256°
2026-05-07 23:40 5.66721 164.37968 28228 ft 452 kts 256°
2026-05-07 23:40 5.65984 164.34938 27749 ft 446 kts 256°
2026-05-07 23:41 5.65251 164.31923 27263 ft 442 kts 256°
2026-05-07 23:41 5.64523 164.28925 26785 ft 439 kts 256°
2026-05-07 23:41 5.63801 164.25952 26311 ft 438 kts 256°
2026-05-07 23:41 5.63083 164.22996 25832 ft 435 kts 256°
2026-05-07 23:42 5.62368 164.20056 25356 ft 432 kts 256°
2026-05-07 23:42 5.61662 164.17152 24879 ft 429 kts 256°
2026-05-07 23:42 5.60961 164.14273 24409 ft 425 kts 256°
2026-05-07 23:42 5.60266 164.11404 23933 ft 422 kts 257°
2026-05-07 23:43 5.59845 164.08479 23462 ft 419 kts 267°
2026-05-07 23:43 5.59909 164.05574 23028 ft 417 kts 272°
2026-05-07 23:43 5.60083 164.02658 22587 ft 415 kts 272°
2026-05-07 23:43 5.60256 163.99760 22147 ft 412 kts 272°
2026-05-07 23:44 5.60435 163.96904 21719 ft 409 kts 272°
2026-05-07 23:44 5.60611 163.94154 21301 ft 405 kts 272°
2026-05-07 23:44 5.60792 163.91334 20870 ft 402 kts 272°
2026-05-07 23:44 5.60973 163.88542 20440 ft 400 kts 272°
2026-05-07 23:45 5.61152 163.85779 20010 ft 397 kts 272°
2026-05-07 23:45 5.61334 163.82989 19574 ft 395 kts 272°
2026-05-07 23:45 5.61513 163.80247 19141 ft 392 kts 272°
2026-05-07 23:45 5.61689 163.77536 18710 ft 389 kts 272°
2026-05-07 23:46 5.61866 163.74823 18277 ft 386 kts 272°
2026-05-07 23:46 5.62041 163.72145 17846 ft 384 kts 272°
2026-05-07 23:46 5.62214 163.69479 17415 ft 381 kts 271°
2026-05-07 23:46 5.62386 163.66836 16989 ft 378 kts 271°
2026-05-07 23:47 5.62556 163.64229 16563 ft 374 kts 271°
2026-05-07 23:47 5.62722 163.61661 16143 ft 370 kts 271°
2026-05-07 23:47 5.62889 163.59094 15722 ft 366 kts 271°
2026-05-07 23:47 5.63056 163.56520 15300 ft 363 kts 271°
2026-05-07 23:48 5.63218 163.54011 14888 ft 361 kts 271°
2026-05-07 23:48 5.63381 163.51492 14472 ft 360 kts 271°
2026-05-07 23:48 5.63542 163.49010 14065 ft 358 kts 271°
2026-05-07 23:48 5.63704 163.46504 13656 ft 355 kts 271°
2026-05-07 23:49 5.63862 163.44057 13252 ft 353 kts 271°
2026-05-07 23:49 5.64021 163.41600 12844 ft 350 kts 271°
2026-05-07 23:49 5.64179 163.39154 12446 ft 348 kts 271°
2026-05-07 23:49 5.64088 163.36766 12059 ft 342 kts 256°
2026-05-07 23:50 5.63335 163.34509 11708 ft 337 kts 244°
2026-05-07 23:50 5.62356 163.32370 11367 ft 337 kts 244°
2026-05-07 23:50 5.61374 163.30228 11016 ft 336 kts 243°
2026-05-07 23:50 5.60384 163.28098 10663 ft 334 kts 243°
2026-05-07 23:51 5.59389 163.25972 10304 ft 331 kts 243°
2026-05-07 23:51 5.58412 163.23892 9952 ft 326 kts 243°
2026-05-07 23:51 5.57457 163.21863 9535 ft 313 kts 243°
2026-05-07 23:51 5.56556 163.19949 9237 ft 291 kts 243°
2026-05-07 23:52 5.55723 163.18185 8960 ft 274 kts 242°
2026-05-07 23:52 5.54898 163.16455 8641 ft 273 kts 242°
2026-05-07 23:52 5.54081 163.14731 8324 ft 271 kts 242°
2026-05-07 23:52 5.53277 163.13016 8006 ft 269 kts 242°
2026-05-07 23:53 5.52484 163.11308 7690 ft 267 kts 242°
2026-05-07 23:53 5.51700 163.09615 7375 ft 266 kts 242°
2026-05-07 23:53 5.50932 163.07947 7054 ft 265 kts 242°
2026-05-07 23:53 5.50162 163.06264 6746 ft 263 kts 242°
2026-05-07 23:54 5.49401 163.04591 6423 ft 261 kts 242°
2026-05-07 23:54 5.48639 163.02920 6112 ft 260 kts 242°
2026-05-07 23:54 5.47884 163.01270 5842 ft 257 kts 242°
2026-05-07 23:54 5.47143 162.99649 5575 ft 254 kts 242°
2026-05-07 23:55 5.46408 162.98041 5307 ft 252 kts 242°
2026-05-07 23:55 5.45684 162.96457 5036 ft 249 kts 242°
2026-05-07 23:55 5.44956 162.94882 4759 ft 248 kts 242°
2026-05-07 23:55 5.44229 162.93300 4478 ft 246 kts 242°
2026-05-07 23:56 5.43505 162.91737 4238 ft 243 kts 242°
2026-05-07 23:56 5.42799 162.90221 3991 ft 239 kts 242°
2026-05-07 23:56 5.42095 162.88705 3718 ft 237 kts 242°
2026-05-07 23:56 5.41406 162.87231 3447 ft 234 kts 242°
2026-05-07 23:57 5.40710 162.85748 3169 ft 233 kts 242°
2026-05-07 23:57 5.39981 162.84296 2894 ft 231 kts 239°
2026-05-07 23:57 5.39220 162.82866 2621 ft 229 kts 239°
2026-05-07 23:57 5.38461 162.81448 2349 ft 228 kts 239°
2026-05-07 23:58 5.37725 162.80045 2081 ft 227 kts 242°
2026-05-07 23:58 5.36932 162.78720 1867 ft 217 kts 224°
2026-05-07 23:58 5.35912 162.77679 1813 ft 198 kts 221°
2026-05-07 23:58 5.34878 162.76865 1933 ft 179 kts 197°
2026-05-07 23:59 5.33680 162.76601 2061 ft 181 kts 170°
2026-05-07 23:59 5.32449 162.76816 1993 ft 173 kts 163°
2026-05-07 23:59 5.31290 162.77054 1973 ft 165 kts 163°
2026-05-07 23:59 5.30157 162.77283 1996 ft 167 kts 160°
2026-05-08 00:00 5.29060 162.77724 2002 ft 167 kts 147°
2026-05-08 00:00 5.28317 162.78542 1988 ft 157 kts 104°
2026-05-08 00:00 5.28416 162.79605 2028 ft 160 kts 69°
2026-05-08 00:00 5.28846 162.80669 2001 ft 161 kts 76°
2026-05-08 00:01 5.29114 162.81753 1917 ft 161 kts 78°
2026-05-08 00:01 5.29376 162.82851 1735 ft 160 kts 78°
2026-05-08 00:01 5.29610 162.83919 1588 ft 154 kts 83°
2026-05-08 00:01 5.29708 162.84972 1585 ft 151 kts 86°
2026-05-08 00:02 5.29783 162.86053 1603 ft 156 kts 86°
2026-05-08 00:02 5.29936 162.87114 1569 ft 151 kts 69°
2026-05-08 00:02 5.30464 162.88002 1598 ft 149 kts 57°
2026-05-08 00:02 5.31081 162.88864 1516 ft 155 kts 60°
2026-05-08 00:03 5.31668 162.89784 1308 ft 155 kts 59°
2026-05-08 00:03 5.32255 162.90672 1126 ft 144 kts 59°
2026-05-08 00:03 5.32796 162.91499 907 ft 141 kts 59°
2026-05-08 00:03 5.33341 162.92313 706 ft 141 kts 58°
2026-05-08 00:04 5.33895 162.93146 511 ft 144 kts 58°
2026-05-08 00:04 5.34461 162.93997 310 ft 144 kts 58°
2026-05-08 00:04 5.35016 162.94827 121 ft 143 kts 58°
2026-05-08 00:04 5.35572 162.95650 33 ft 135 kts 56°
2026-05-08 00:05 5.36053 162.96379 21 ft 134 kts 56°
2026-05-08 00:05 5.36617 162.97235 444 ft 156 kts 59°
2026-05-08 00:05 5.37240 162.98207 1007 ft 172 kts 58°
2026-05-08 00:05 5.37942 162.99283 1096 ft 192 kts 59°
2026-05-08 00:06 5.38699 163.00278 1169 ft 171 kts 39°
2026-05-08 00:06 5.39855 163.00580 1350 ft 183 kts 354°
2026-05-08 00:06 5.41017 162.99940 1550 ft 202 kts 313°
2026-05-08 00:06 5.41576 162.98621 1639 ft 211 kts 274°
2026-05-08 00:07 5.41249 162.97208 1624 ft 206 kts 237°
2026-05-08 00:07 5.40487 162.95995 1611 ft 206 kts 234°
2026-05-08 00:07 5.39726 162.94795 1602 ft 204 kts 235°
2026-05-08 00:07 5.38958 162.93585 1643 ft 201 kts 235°
2026-05-08 00:08 5.38189 162.92381 1608 ft 204 kts 235°
2026-05-08 00:08 5.37440 162.91211 1579 ft 193 kts 235°
2026-05-08 00:08 5.36711 162.90079 1585 ft 191 kts 235°
2026-05-08 00:08 5.36116 162.88878 1589 ft 193 kts 257°
2026-05-08 00:09 5.36009 162.87570 1613 ft 182 kts 270°
2026-05-08 00:09 5.35755 162.86353 1548 ft 173 kts 233°
2026-05-08 00:09 5.34849 162.85666 1593 ft 162 kts 188°
2026-05-08 00:09 5.33754 162.85780 1393 ft 157 kts 145°
2026-05-08 00:10 5.33033 162.86525 1148 ft 146 kts 121°
2026-05-08 00:10 5.32473 162.87383 971 ft 140 kts 120°
2026-05-08 00:10 5.31987 162.88203 854 ft 138 kts 112°
2026-05-08 00:10 5.31802 162.89159 675 ft 142 kts 84°
2026-05-08 00:11 5.32062 162.90144 615 ft 146 kts 72°
2026-05-08 00:11 5.32489 162.91057 547 ft 145 kts 59°
2026-05-08 00:11 5.33049 162.91923 485 ft 146 kts 58°
2026-05-08 00:11 5.33620 162.92766 405 ft 143 kts 58°
2026-05-08 00:12 5.34189 162.93604 298 ft 144 kts 57°
2026-05-08 00:12 5.34752 162.94435 172 ft 145 kts 57°
2026-05-08 00:12 5.35325 162.95285 38 ft 144 kts 57°
2026-05-08 00:12 5.35783 162.95979 30 ft 72 kts 55°
2026-05-08 00:13 5.36006 162.96291 22 ft 46 kts 54°
2026-05-08 00:13 5.36110 162.96414 17 ft 8 kts 34°
2026-05-08 00:13 5.36133 162.96431 17 ft 3 kts 45°
2026-05-08 00:13 5.36152 162.96462 17 ft 2 kts 98°
2026-05-08 00:14 5.36127 162.96460 17 ft 10 kts 224°
2026-05-08 00:14 5.35950 162.96204 25 ft 87 kts 236°
2026-05-08 00:14 5.35654 162.95772 31 ft 59 kts 236°
2026-05-08 00:14 5.35489 162.95544 31 ft 20 kts 218°
2026-05-08 00:15 5.35392 162.95566 31 ft 4 kts 114°
2026-05-08 00:15 5.35380 162.95592 30 ft 4 kts 122°
2026-05-08 00:15 5.35357 162.95610 30 ft 3 kts 160°